Content
SEND FEEDBACK

Daily
Averages
Monthly
Summary
Indonesia

HASANUDIN, INDONESIA


Home > Asia > Indonesia
Elevation: 46 feet     Latitude: 05 04S     Longitude: 119 33E

WEATHER
 
SELECT A DAY
Number of Records: 195,993;   Date Range: 9/17/97 - 7/28/14
 
SHARE

PRINT THIS DATA

[ ← Previous Day ]
WEATHER ALMANAC - MARCH 15, 2013
[ Next Day → ]
[ °C ]   °F
Weather ElementAverageHighLow
Temperature79 °F84.2 °F (10:00 am)75.2 °F (2:00 am)
Dewpoint77.1 °F81 °F (11:00 am)75.2 °F (12:30 am)
Humidity93.9 %100 % (2:00 am)78 % (5:00 pm)
Barometer28.87 in29.96 in (11:00 pm) (7:00 pm)
Wind Speed4.1 mph13.8 mph (12:00 pm)
Weather ElementAverage
Visibility5.4 mi
Wind DirectionENE (81.7 °)

Weather ElementTotal
Precipitation---
Cooling Degree Days14.7 (Base 65)
Growing Degree Days29.7 (Base 50)
Averaged from 58 records on March 15, 2013
WEATHER CONDITIONS BREAKOUT
WIND DIRECTION BREAKOUT
WEATHER BY HOUR - MARCH 15, 2013
[ °C ]   °F
Local TimeTemperatureDewpointHumidityBarometerVisibilityWind DirectionWind SpeedGust SpeedPrecipitationEventsConditions
12:30 AM77.0 °F75.2 °F94 %29.92 in5.0 miVariable2.3 mphPartly Cloudy
1:00 AM77.0 °F75.2 °F94 %29.89 in5.0 miENE (60°)3.5 mphPartly Cloudy
2:00 AM76.0 °F76.0 °F98 %29.88 in5.0 miEast (90°)2.3 mphScattered Clouds
2:00 AM75.2 °F75.2 °F100 %29.86 in5.0 miENE (70°)3.5 mphPartly Cloudy
2:30 AM75.2 °F75.2 °F100 %29.86 in5.0 miCalmPartly Cloudy
3:00 AM75.2 °F75.2 °F100 %29.86 in5.0 miVariable1.2 mphPartly Cloudy
3:30 AM75.2 °F75.2 °F100 %29.86 in5.0 miVariable2.3 mphPartly Cloudy
4:00 AM77.0 °F75.2 °F94 %29.86 in5.0 miEast (80°)3.5 mphPartly Cloudy
4:30 AM75.2 °F75.2 °F100 %29.86 in5.0 miNE (50°)3.5 mphPartly Cloudy
5:00 AM76.0 °F76.0 °F100 %29.87 in5.0 miESE (110°)2.3 mphScattered Clouds
5:00 AM75.2 °F75.2 °F100 %29.86 in5.0 miCalmPartly Cloudy
5:30 AM75.2 °F75.2 °F100 %29.86 in5.0 miNNE (30°)1.2 mphPartly Cloudy
6:00 AM77.0 °F77.0 °F100 %29.86 in5.6 miESE (120°)3.5 mphPartly Cloudy
6:30 AM77.0 °F77.0 °F100 %29.89 in5.6 miVariable1.2 mphPartly Cloudy
7:00 AM77.0 °F77.0 °F100 %29.89 in6.2 miVariable1.2 mphPartly Cloudy
7:30 AM77.0 °F77.0 °F100 %29.92 in6.2 miVariable2.3 mphPartly Cloudy
8:00 AM78.0 °F78.0 °F100 %29.93 in6.0 miEast (100°)1.2 mphScattered Clouds
8:00 AM78.8 °F77.0 °F94 %29.92 in6.2 miCalmPartly Cloudy
8:30 AM78.8 °F77.0 °F94 %29.92 in6.2 miVariable2.3 mphPartly Cloudy
9:00 AM80.6 °F77.0 °F89 %29.92 in6.2 miVariable2.3 mphPartly Cloudy
9:30 AM82.4 °F80.6 °F94 %29.95 in6.2 miVariable2.3 mphPartly Cloudy
10:00 AM84.2 °F78.8 °F84 %29.95 in6.2 miSouth (190°)4.6 mphPartly Cloudy
10:30 AM84.2 °F78.8 °F84 %29.95 in5.6 miSouth (190°)6.9 mphScattered Clouds
10:41 AM84.2 °F78.8 °F84 %29.95 in5.0 miSSW (200°)8.1 mphRainLight Rain
11:00 AM82.0 °F81.0 °F94 %29.95 in5.0 miWSW (240°)9.2 mphRainLight Rain
11:00 AM82.4 °F80.6 °F94 %29.95 in5.0 miWSW (250°)9.2 mphRainLight Rain
11:30 AM80.6 °F78.8 °F94 %29.95 in5.0 miWSW (250°)8.1 mphScattered Clouds
11:38 AM80.6 °F77.0 °F89 %29.95 in4.3 miWest (280°)9.2 mphRainLight Rain
11:39 AM80.6 °F77.0 °F89 %4.3 miWest (280°)10.4 mphRainLight Rain
12:00 PM77.0 °F77.0 °F100 %3.7 miNW (320°)13.8 mphRainLight Rain
12:30 PM77.0 °F75.2 °F94 %29.92 in3.7 miNNW (340°)9.2 mphMostly Cloudy
1:00 PM77.0 °F77.0 °F100 %29.92 in4.3 miENE (60°)10.4 mphRainLight Rain
1:17 PM77.0 °F75.2 °F94 %29.89 in6.2 miENE (60°)10.4 mphPartly Cloudy
1:30 PM78.8 °F75.2 °F89 %29.89 in6.2 miENE (70°)9.2 mphPartly Cloudy
2:00 PM79.0 °F76.0 °F88 %29.88 in6.0 miEast (80°)4.6 mphRainLight Rain
2:00 PM78.8 °F77.0 °F94 %29.86 in5.6 miENE (60°)4.6 mphPartly Cloudy
2:30 PM80.6 °F75.2 °F84 %29.86 in5.6 miEast (90°)4.6 mphPartly Cloudy
3:00 PM82.4 °F77.0 °F84 %29.86 in6.2 miNE (50°)6.9 mphPartly Cloudy
3:30 PM82.4 °F77.0 °F84 %29.86 in6.2 miEast (80°)4.6 mphPartly Cloudy
4:00 PM82.4 °F75.2 °F79 %29.86 in6.2 miEast (90°)3.5 mphPartly Cloudy
4:30 PM82.4 °F77.0 °F84 %29.86 in6.2 miEast (100°)3.5 mphPartly Cloudy
5:00 PM82.0 °F76.0 °F78 %29.86 in6.0 miESE (120°)3.5 mphScattered Clouds
5:00 PM82.4 °F77.0 °F84 %29.86 in6.2 miESE (120°)5.8 mphPartly Cloudy
5:30 PM80.6 °F77.0 °F89 %29.86 in6.2 miVariable2.3 mphPartly Cloudy
6:00 PM80.6 °F77.0 °F89 %29.89 in5.6 miCalmPartly Cloudy
6:30 PM80.6 °F78.8 °F94 %29.89 in5.6 miVariable1.2 mphPartly Cloudy
7:00 PM80.6 °F78.8 °F94 %29.89 in5.0 miVariable1.2 mphPartly Cloudy
7:30 PM80.6 °F78.8 °F94 %29.89 in5.0 miVariable1.2 mphPartly Cloudy
8:00 PM80.0 °F78.0 °F91 %29.91 in5.0 miENE (70°)3.5 mphScattered Clouds
8:00 PM80.6 °F78.8 °F94 %29.89 in5.0 miNE (50°)3.5 mphPartly Cloudy
8:30 PM78.8 °F78.8 °F100 %29.92 in5.0 miNNE (30°)3.5 mph
9:00 PM78.8 °F78.8 °F100 %29.92 in5.0 miVariable1.2 mphPartly Cloudy
9:30 PM78.8 °F78.8 °F100 %29.92 in5.0 miEast (80°)2.3 mphPartly Cloudy
10:00 PM78.8 °F78.8 °F100 %29.95 in5.0 miVariable2.3 mphPartly Cloudy
10:30 PM77.0 °F77.0 °F100 %29.95 in5.0 miENE (70°)3.5 mphPartly Cloudy
11:00 PM77.0 °F77.0 °F100 %29.96 in5.0 miSE (130°)3.5 mphScattered Clouds
11:00 PM77.0 °F77.0 °F100 %29.95 in5.0 miEast (80°)2.3 mphPartly Cloudy
11:30 PM77.0 °F77.0 °F100 %29.95 in5.0 miVariable2.3 mphPartly Cloudy
Hourly data recorded from WAAA, located miles away from Hasanudin, Indonesia







STORIES FROM OUR PARTNERS